{"data":{"norad_id":46146,"epoch":"2026-09-20T03:24:41.138784Z","epoch_age_seconds":49150,"freshness":"FRESH","line1":"1 46146U 20057AF  26263.14214281  .00046012  00000+0  92763-3 0  9999","line2":"2 46146  53.1522 116.7232 0000316  60.6656 299.4383 15.46118221336081","mean_motion":15.46118221,"eccentricity":3.16e-5,"inclination_deg":53.1522,"raan_deg":116.7232,"arg_perigee_deg":60.6656,"mean_anomaly_deg":299.4383,"bstar":0.00092763,"rev_number":33608,"period_min":93.136474329152,"perigee_km":427.87930458453,"apogee_km":428.30945840784,"semimajor_km":6806.2313814962,"source":"CELESTRAK","updated_at":"2026-09-20T09:00:38.466952Z"}}